Regional Weather Roundup
Issued by NWS

Home | Current Version | Previous Version | Text Only | Print | Product List | Glossary On
Versions: 1 2 3 4 5 6 7 8 9 10 11 12 13 14 15 16 17 18 19 20 21 22 23 24 25 26 27 28 29 30 31 32 33 34 35 36 37 38 39 40 41 42 43 44 45 46 47 48 49 50
000
ASUS43 KDTX 071601
RWRMI
MICHIGAN HOURLY REGIONAL WEATHER ROUNDUP
NATIONAL WEATHER SERVICE DETROIT/PONTIAC MI
1100 AM EST WED DEC 07 2016

NOTE: "FAIR" INDICATES FEW OR NO CLOUDS BELOW 12,000 FEET WITH NO
SIGNIFICANT WEATHER AND/OR OBSTRUCTION TO VISIBILITY.

MIZ047>049-052>055-059>063-066>070-074>076-081>083-071700-
SOUTHEAST LOWER MICHIGAN

CITY           SKY/WX    TMP DP  RH WIND       PRES   REMARKS
ADRIAN         CLOUDY    31  24  75 W7        30.06R WCI  24
ALMA           PTSUNNY   32  23  69 W15G21    29.96S WCI  22
ANN ARBOR      MOSUNNY   33  25  72 SW10      30.02R WCI  25
BAD AXE        CLOUDY    33  23  67 W21G30    29.93S WCI  20
CARO           CLOUDY    33  24  70 W21G26    29.95R WCI  21
DETROIT CITY   MOSUNNY   33  23  66 W16G23    30.01F WCI  23
DETROIT        PTSUNNY   33  24  69 SW10      30.03F WCI  25
FLINT          PTSUNNY   35  23  61 SW18G24   29.98F WCI  24
GROSSE ILE     MOSUNNY   33  25  71 SW10      30.03S WCI  25
HILLSDALE      SUNNY     32  23  69 W10G16    30.01S WCI  24
HOWELL         CLOUDY    34  25  67 W15       29.99R WCI  25

CITY           SKY/WX    TMP DP  RH WIND       PRES   REMARKS
JACKSON        PTSUNNY   32  22  66 W12G25    30.01R WCI  23
LAMBERTVILLE   MOSUNNY   33  24  69 SW7       30.07R WCI  27
LANSING        CLOUDY    34  23  64 W17       29.99S WCI  23
LAPEER         NOT AVBL
MASON          CLOUDY    33  25  72 W10G17    30.00R WCI  25
MONROE         MOSUNNY   33  27  78 SW14      30.05R WCI  23
MT. CLEMENS    PTSUNNY   34  24  64 SW10      29.98F WCI  26
PONTIAC        PTSUNNY   32  22  66 W13G21    29.97F WCI  22
PORT HOPE        N/A     34  25  69 SW9G17    29.89S WCI  27
PORT HURON     CLOUDY    34  23  64 SW8G16    29.99S WCI  27
TRI CITIES     CLOUDY    33  24  69 SW15G28   29.95S WCI  23
MIDLAND        PTSUNNY   33  21  61 SW16G23   29.93S WCI  23
TROY           CLOUDY    35  23  61 W10       30.01F WCI  27
SAGINAW HB     PTSUNNY   34  23  64 SW18G24   29.95F WCI  23
$$
MIZ043>046-050>051-056>058-064>065-071>073-077>080-071700-
SOUTHWEST LOWER MICHIGAN

CITY           SKY/WX    TMP DP  RH WIND       PRES   REMARKS
BATTLE CREEK   MOSUNNY   35  24  64 W15G28    30.01R WCI  25
BENTON HARBOR  PTSUNNY   33  23  66 W14G24    30.07R WCI  23
BIG RAPIDS     CLOUDY    31  21  65 W14G26    29.92S WCI  21
COLDWATER      SUNNY     33  24  68 W13       30.03S WCI  24
FREMONT        CLOUDY    30  19  63 W10G22    29.97S WCI  21
HOLLAND        PTSUNNY   33  24  69 W21       30.02R WCI  21
GRAND RAPIDS   CLOUDY    32  22  66 W17G28    30.00R WCI  21
IONIA          CLOUDY    32  24  72 W21G26    29.97S WCI  20
KALAMAZOO      MOSUNNY   34  22  61 W13G21    30.03R WCI  25
LUDINGTON      CLOUDY    29  21  71 W8G17     29.95S WCI  21
MARSHALL       MOSUNNY   33  24  70 SW10      30.01R WCI  25
MOUNT PLEASANT PTSUNNY   33  22  64 SW13      29.93S WCI  24
MUSKEGON       CLOUDY    32  23  69 W15       30.00R WCI  22
SOUTH HAVEN    PTSUNNY   33  25  73 W10G20    30.05R WCI  24
$$
MIZ016>042-071700-
NORTHERN LOWER MICHIGAN

CITY           SKY/WX    TMP DP  RH WIND       PRES   REMARKS
ALPENA         CLOUDY    32  19  58 W16G24    29.84R WCI  21
BEAVER ISLAND  CLOUDY    29  21  71 W22G33    29.79S WCI  16
BELLAIRE       CLOUDY    31  20  65 SW14G22   29.86S WCI  20
CADILLAC       CLOUDY    27  20  75 W10G26    29.86S WCI  17
CHARLEVOIX     CLOUDY    31  22  68 SW17G28   29.84F WCI  19
FRANKFORT      CLOUDY    29  22  76 W16G29    29.91R WCI  17
GAYLORD        PTSUNNY   28  16  60 W26G37    29.80R WCI  13
GRAYLING       CLOUDY    29  20  69 SW13G28   29.84S WCI  19
HARBOR SPRINGS CLOUDY    31  23  72 SW21G30   29.80S WCI  18
HOUGHTON LAKE  CLOUDY    28  19  69 W20G29    29.87R WCI  15
MANISTEE       CLOUDY    29  21  72 W12G22    29.93  WCI  19
OSCODA         CLOUDY    35  20  55 MISG      29.88S
PELLSTON       CLOUDY    31  20  63 SW18G33   29.79S WCI  19
ROGERS CITY    CLOUDY    32  21  64 SW10G16   29.81R WCI  24
TRAVERSE CITY  CLOUDY    31  19  61 W10G20    29.87S WCI  22
$$
MIZ007>008-015-071700-
EASTERN UPPER MICHIGAN

CITY           SKY/WX    TMP DP  RH WIND       PRES   REMARKS
MACKINAC ISLAN CLOUDY    30  22  74 W22G38    29.75R WCI  16
NEWBERRY       CLOUDY    24  15  68 SW14G23   29.75R WCI  11
MUNISING         N/A     25  13  60 W10G17    29.75S WCI  15
$$
MIZ004>006-011>014-085-071700-
CENTRAL UPPER MICHIGAN

CITY           SKY/WX    TMP DP  RH WIND       PRES   REMARKS
MANISTIQUE     PTSUNNY   24  14  65 W10G22    29.78S WCI  13
$$
MIZ001>003-009>011-084-071700-
WESTERN UPPER MICHIGAN

CITY           SKY/WX    TMP DP  RH WIND       PRES   REMARKS
COPPER HARBOR    N/A     25  19  78 W9G24     29.64R WCI  15
$$

ABBREVIATIONS USED IN REMARKS
   TC - TEMPERATURE IN CELSIUS
  WCI - WIND CHILL INDEX
   HX - HEAT INDEX
  VSB - VISIBILITY





USA.gov is the U.S. government's official web portal to all federal, state and local government web resources and services.